VTK2013 UHMM-UHWW

Flight info

Callsign VTK2013
Flight time 2h 58m
Altitude 34000
Route N0490F340 BANO5D BANOT L160 NA N222 FI W307 TD B355 BG G714 DAGES DAGE2N
Aircraft A320/M-VGDW/C

Departure

Time 2026-04-18 04:35
Airport Sokol Airport (UHMM)

Arrival

Time 2026-04-18 07:33
Airport Vladivostok International Airport (UHWW)
Time Latitude Longitude Altitude Speed Heading
2026-04-18 03:50 59.91361 150.72032 583 ft 0 kts
2026-04-18 04:22 59.91360 150.72032 610 ft 0 kts
2026-04-18 04:23 59.91363 150.72042 583 ft 4 kts 66°
2026-04-18 04:24 59.91353 150.72002 583 ft 4 kts 39°
2026-04-18 04:24 59.91331 150.71993 583 ft 4 kts 338°
2026-04-18 04:24 59.91310 150.72013 583 ft 1 kts 336°
2026-04-18 04:28 59.91313 150.72010 583 ft 2 kts 335°
2026-04-18 04:28 59.91317 150.71960 583 ft 6 kts 269°
2026-04-18 04:29 59.91317 150.71837 582 ft 11 kts 271°
2026-04-18 04:29 59.91322 150.71646 583 ft 16 kts 273°
2026-04-18 04:29 59.91328 150.71390 582 ft 21 kts 271°
2026-04-18 04:29 59.91334 150.71083 583 ft 22 kts 273°
2026-04-18 04:30 59.91345 150.70752 583 ft 26 kts 275°
2026-04-18 04:30 59.91354 150.70460 583 ft 17 kts 273°
2026-04-18 04:30 59.91325 150.70321 583 ft 13 kts 215°
2026-04-18 04:30 59.91242 150.70218 582 ft 15 kts 209°
2026-04-18 04:31 59.91176 150.70142 581 ft 5 kts 216°
2026-04-18 04:31 59.91153 150.70075 581 ft 7 kts 253°
2026-04-18 04:31 59.91151 150.69980 582 ft 7 kts 271°
2026-04-18 04:31 59.91155 150.69875 583 ft 8 kts 275°
2026-04-18 04:32 59.91160 150.69755 584 ft 10 kts 275°
2026-04-18 04:32 59.91166 150.69603 584 ft 12 kts 274°
2026-04-18 04:32 59.91170 150.69428 585 ft 13 kts 271°
2026-04-18 04:32 59.91173 150.69231 584 ft 16 kts 275°
2026-04-18 04:33 59.91218 150.69106 583 ft 8 kts 318°
2026-04-18 04:33 59.91219 150.69004 583 ft 8 kts 208°
2026-04-18 04:33 59.91176 150.69076 583 ft 10 kts 96°
2026-04-18 04:33 59.91176 150.69103 583 ft 0 kts 91°
2026-04-18 04:34 59.91176 150.69104 583 ft 0 kts 91°
2026-04-18 04:34 59.91174 150.69222 584 ft 24 kts 93°
2026-04-18 04:34 59.91158 150.69870 583 ft 77 kts 92°
2026-04-18 04:34 59.91118 150.71323 585 ft 130 kts 93°
2026-04-18 04:35 59.91052 150.73423 614 ft 169 kts 97°
2026-04-18 04:35 59.90958 150.75695 1217 ft 157 kts 97°
2026-04-18 04:35 59.90813 150.77766 1983 ft 156 kts 97°
2026-04-18 04:35 59.90740 150.79973 2729 ft 162 kts 91°
2026-04-18 04:36 59.90678 150.82302 3087 ft 177 kts 94°
2026-04-18 04:36 59.90560 150.84836 3464 ft 190 kts 95°
2026-04-18 04:36 59.90452 150.87561 3786 ft 208 kts 94°
2026-04-18 04:36 59.90372 150.90622 4029 ft 234 kts 91°
2026-04-18 04:37 59.90334 150.93994 4494 ft 252 kts 92°
2026-04-18 04:37 59.90288 150.97543 5272 ft 256 kts 92°
2026-04-18 04:37 59.90199 151.01083 6200 ft 256 kts 94°
2026-04-18 04:37 59.89966 151.04583 7082 ft 258 kts 109°
2026-04-18 04:38 59.88911 151.07537 7612 ft 275 kts 146°
2026-04-18 04:38 59.87112 151.08658 8400 ft 277 kts 183°
2026-04-18 04:38 59.85267 151.07553 8980 ft 284 kts 218°
2026-04-18 04:38 59.84039 151.04542 9609 ft 285 kts 253°
2026-04-18 04:39 59.83682 151.00730 10417 ft 282 kts 267°
2026-04-18 04:39 59.83419 150.96716 10611 ft 304 kts 266°
2026-04-18 04:39 59.83097 150.92405 10781 ft 325 kts 265°
2026-04-18 04:39 59.82731 150.87851 11096 ft 339 kts 265°
2026-04-18 04:40 59.82361 150.83270 11753 ft 343 kts 263°
2026-04-18 04:40 59.81957 150.78512 12373 ft 347 kts 262°
2026-04-18 04:40 59.81556 150.73816 13008 ft 351 kts 262°
2026-04-18 04:40 59.81149 150.69011 13669 ft 355 kts 263°
2026-04-18 04:41 59.80744 150.64149 14241 ft 358 kts 263°
2026-04-18 04:41 59.80342 150.59254 14791 ft 361 kts 263°
2026-04-18 04:41 59.79939 150.54311 15327 ft 364 kts 263°
2026-04-18 04:41 59.79533 150.49325 15882 ft 367 kts 263°
2026-04-18 04:42 59.79125 150.44300 16438 ft 370 kts 263°
2026-04-18 04:42 59.78708 150.39232 16991 ft 373 kts 263°
2026-04-18 04:42 59.78281 150.34120 17562 ft 377 kts 263°
2026-04-18 04:42 59.77848 150.28970 18133 ft 380 kts 263°
2026-04-18 04:43 59.77411 150.23781 18653 ft 383 kts 263°
2026-04-18 04:43 59.76966 150.18545 19183 ft 386 kts 263°
2026-04-18 04:43 59.76516 150.13271 19706 ft 389 kts 263°
2026-04-18 04:43 59.76061 150.07957 20248 ft 392 kts 264°
2026-04-18 04:44 59.75601 150.02616 20760 ft 394 kts 264°
2026-04-18 04:44 59.75136 149.97237 21258 ft 397 kts 264°
2026-04-18 04:44 59.74665 149.91824 21732 ft 400 kts 264°
2026-04-18 04:44 59.74189 149.86381 22201 ft 402 kts 264°
2026-04-18 04:45 59.73708 149.80904 22653 ft 405 kts 264°
2026-04-18 04:45 59.73221 149.75394 23090 ft 407 kts 264°
2026-04-18 04:45 59.72737 149.69927 23509 ft 409 kts 264°
2026-04-18 04:45 59.72239 149.64355 23893 ft 412 kts 264°
2026-04-18 04:46 59.71735 149.58757 24219 ft 414 kts 264°
2026-04-18 04:46 59.71231 149.53125 24555 ft 417 kts 264°
2026-04-18 04:46 59.70722 149.47463 24874 ft 419 kts 264°
2026-04-18 04:46 59.70205 149.41765 25198 ft 421 kts 264°
2026-04-18 04:47 59.69680 149.36040 25514 ft 423 kts 263°
2026-04-18 04:47 59.69150 149.30295 25826 ft 426 kts 263°
2026-04-18 04:47 59.68550 149.24538 26131 ft 430 kts 258°
2026-04-18 04:47 59.67511 149.18939 26448 ft 437 kts 248°
2026-04-18 04:48 59.65999 149.13682 26769 ft 443 kts 238°
2026-04-18 04:48 59.64034 149.08948 27084 ft 449 kts 228°
2026-04-18 04:48 59.61675 149.04837 27383 ft 454 kts 222°
2026-04-18 04:48 59.59234 149.00868 27777 ft 454 kts 222°
2026-04-18 04:49 59.56804 148.96907 28252 ft 453 kts 222°
2026-04-18 04:49 59.54380 148.92962 28718 ft 451 kts 222°
2026-04-18 04:49 59.51993 148.89079 29155 ft 451 kts 223°
2026-04-18 04:49 59.49581 148.85156 29604 ft 450 kts 223°
2026-04-18 04:50 59.47168 148.81237 30048 ft 449 kts 222°
2026-04-18 04:50 59.44756 148.77336 30432 ft 449 kts 222°
2026-04-18 04:50 59.42343 148.73452 30781 ft 448 kts 222°
2026-04-18 04:50 59.39930 148.69579 31143 ft 448 kts 222°
2026-04-18 04:51 59.37516 148.65711 31510 ft 448 kts 221°
2026-04-18 04:51 59.35102 148.61858 31883 ft 447 kts 221°
2026-04-18 04:51 59.32692 148.58007 32256 ft 447 kts 221°
2026-04-18 04:51 59.30286 148.54161 32627 ft 446 kts 221°
2026-04-18 04:52 59.27886 148.50326 33010 ft 446 kts 221°
2026-04-18 04:52 59.25483 148.46499 33391 ft 445 kts 221°
2026-04-18 04:52 59.23084 148.42691 33767 ft 444 kts 221°
2026-04-18 04:52 59.20686 148.38893 34068 ft 444 kts 220°
2026-04-18 04:53 59.18279 148.35091 34133 ft 448 kts 220°
2026-04-18 04:53 59.13359 148.27343 34129 ft 459 kts 220°
2026-04-18 04:54 59.08377 148.19529 34132 ft 460 kts 220°
2026-04-18 04:54 59.03426 148.11783 34135 ft 460 kts 220°
2026-04-18 04:55 58.98440 148.04012 34134 ft 460 kts 220°
2026-04-18 04:55 58.93453 147.96259 34133 ft 459 kts 220°
2026-04-18 04:56 58.85974 147.84682 34139 ft 459 kts 220°
2026-04-18 04:56 58.80980 147.76998 34138 ft 459 kts 220°
2026-04-18 04:57 58.75978 147.69353 34149 ft 459 kts 220°
2026-04-18 04:57 58.70977 147.61734 34148 ft 458 kts 220°
2026-04-18 04:58 58.66021 147.54183 34149 ft 458 kts 220°
2026-04-18 04:58 58.61028 147.46608 34144 ft 457 kts 220°
2026-04-18 04:59 58.56033 147.39076 34150 ft 457 kts 219°
2026-04-18 04:59 58.51028 147.31576 34149 ft 456 kts 219°
2026-04-18 05:00 58.46035 147.24102 34155 ft 456 kts 219°
2026-04-18 05:00 58.41036 147.16630 34155 ft 456 kts 219°
2026-04-18 05:01 58.36039 147.09207 34161 ft 456 kts 219°
2026-04-18 05:01 58.31881 147.03052 34160 ft 455 kts 219°
2026-04-18 05:02 58.26875 146.95679 34165 ft 455 kts 219°
2026-04-18 05:02 58.21037 146.87086 34157 ft 454 kts 219°
2026-04-18 05:03 58.16887 146.81003 34162 ft 454 kts 219°
2026-04-18 05:03 58.11892 146.73709 34170 ft 453 kts 219°
2026-04-18 05:04 58.06905 146.66445 34168 ft 452 kts 219°
2026-04-18 05:04 58.01915 146.59211 34166 ft 452 kts 219°
2026-04-18 05:05 57.96961 146.52061 34164 ft 451 kts 218°
2026-04-18 05:05 57.91976 146.44889 34159 ft 451 kts 218°
2026-04-18 05:06 57.86994 146.37742 34156 ft 450 kts 218°
2026-04-18 05:06 57.82009 146.30630 34158 ft 450 kts 218°
2026-04-18 05:07 57.77026 146.23538 34157 ft 449 kts 218°
2026-04-18 05:07 57.72048 146.16472 34160 ft 449 kts 218°
2026-04-18 05:08 57.67059 146.09429 34160 ft 449 kts 218°
2026-04-18 05:08 57.62077 146.02404 34157 ft 449 kts 218°
2026-04-18 05:09 57.57091 145.95409 34152 ft 449 kts 218°
2026-04-18 05:09 57.52104 145.88431 34155 ft 448 kts 218°
2026-04-18 05:10 57.47120 145.81475 34154 ft 448 kts 218°
2026-04-18 05:10 57.42137 145.74541 34152 ft 447 kts 218°
2026-04-18 05:11 57.37189 145.67697 34152 ft 447 kts 218°
2026-04-18 05:11 57.32204 145.60828 34154 ft 446 kts 218°
2026-04-18 05:12 57.27228 145.53989 34149 ft 446 kts 217°
2026-04-18 05:12 57.22248 145.47168 34151 ft 445 kts 218°
2026-04-18 05:13 57.17271 145.40368 34146 ft 445 kts 218°
2026-04-18 05:13 57.12299 145.33597 34146 ft 445 kts 218°
2026-04-18 05:14 57.07318 145.26838 34144 ft 445 kts 218°
2026-04-18 05:14 57.02338 145.20103 34146 ft 445 kts 218°
2026-04-18 05:15 56.97352 145.13378 34280 ft 445 kts 218°
2026-04-18 05:15 56.94885 145.10060 34135 ft 445 kts 218°
2026-04-18 05:15 56.92393 145.06723 34117 ft 444 kts 218°
2026-04-18 05:16 56.87400 145.00071 34113 ft 444 kts 218°
2026-04-18 05:16 56.82399 144.93400 34111 ft 445 kts 218°
2026-04-18 05:17 56.77392 144.86740 34120 ft 446 kts 218°
2026-04-18 05:17 56.72374 144.80092 34126 ft 446 kts 218°
2026-04-18 05:18 56.67354 144.73457 34132 ft 446 kts 218°
2026-04-18 05:18 56.62322 144.66855 34132 ft 446 kts 218°
2026-04-18 05:19 56.57294 144.60274 34128 ft 446 kts 218°
2026-04-18 05:19 56.52265 144.53701 34127 ft 445 kts 218°
2026-04-18 05:20 56.47244 144.47147 34128 ft 445 kts 218°
2026-04-18 05:20 56.42245 144.40664 34127 ft 445 kts 218°
2026-04-18 05:21 56.37216 144.34165 34128 ft 444 kts 218°
2026-04-18 05:21 56.32190 144.27680 34130 ft 444 kts 218°
2026-04-18 05:22 56.27156 144.21231 34129 ft 444 kts 217°
2026-04-18 05:22 56.22092 144.14883 34125 ft 444 kts 217°
2026-04-18 05:23 56.17010 144.08586 34123 ft 443 kts 217°
2026-04-18 05:23 56.11933 144.02297 34126 ft 443 kts 217°
2026-04-18 05:24 56.06866 143.96018 34124 ft 443 kts 217°
2026-04-18 05:24 56.01829 143.89795 34124 ft 443 kts 217°
2026-04-18 05:25 55.96762 143.83555 34126 ft 443 kts 217°
2026-04-18 05:25 55.91687 143.77325 34118 ft 442 kts 217°
2026-04-18 05:26 55.86615 143.71120 34114 ft 442 kts 217°
2026-04-18 05:26 55.81541 143.64928 34116 ft 442 kts 217°
2026-04-18 05:27 55.76465 143.58762 34111 ft 442 kts 217°
2026-04-18 05:27 55.71391 143.52605 34111 ft 442 kts 217°
2026-04-18 05:28 55.66313 143.46467 34111 ft 442 kts 217°
2026-04-18 05:28 55.61234 143.40361 34107 ft 441 kts 216°
2026-04-18 05:29 55.56188 143.34314 34106 ft 441 kts 216°
2026-04-18 05:29 55.51108 143.28242 34102 ft 441 kts 216°
2026-04-18 05:30 55.46030 143.22165 34101 ft 441 kts 216°
2026-04-18 05:30 55.40947 143.16124 34097 ft 441 kts 216°
2026-04-18 05:31 55.35861 143.10106 34097 ft 441 kts 216°
2026-04-18 05:31 55.30778 143.04095 34096 ft 441 kts 216°
2026-04-18 05:32 55.25687 142.98109 34091 ft 440 kts 216°
2026-04-18 05:32 55.20594 142.92138 34084 ft 440 kts 216°
2026-04-18 05:33 55.15487 142.86213 34088 ft 440 kts 216°
2026-04-18 05:33 55.10405 142.80385 34082 ft 440 kts 216°
2026-04-18 05:34 55.05284 142.74529 34081 ft 440 kts 215°
2026-04-18 05:34 55.00167 142.68697 34081 ft 439 kts 215°
2026-04-18 05:35 54.95053 142.62881 34078 ft 439 kts 215°
2026-04-18 05:35 54.89943 142.57060 34076 ft 439 kts 216°
2026-04-18 05:36 54.84840 142.51269 34073 ft 438 kts 215°
2026-04-18 05:36 54.79727 142.45509 34067 ft 438 kts 215°
2026-04-18 05:37 54.74624 142.39771 34061 ft 437 kts 215°
2026-04-18 05:37 54.69514 142.34052 34057 ft 437 kts 215°
2026-04-18 05:38 54.64408 142.28341 34051 ft 437 kts 215°
2026-04-18 05:38 54.59342 142.22681 34050 ft 437 kts 215°
2026-04-18 05:39 54.54233 142.16996 34044 ft 437 kts 215°
2026-04-18 05:39 54.49121 142.11348 34044 ft 437 kts 215°
2026-04-18 05:40 54.44010 142.05702 34039 ft 436 kts 215°
2026-04-18 05:40 54.38900 142.00068 34038 ft 436 kts 215°
2026-04-18 05:41 54.33786 141.94460 34037 ft 436 kts 215°
2026-04-18 05:41 54.28672 141.88867 34034 ft 436 kts 215°
2026-04-18 05:42 54.23557 141.83278 34033 ft 436 kts 215°
2026-04-18 05:42 54.18442 141.77708 34031 ft 436 kts 215°
2026-04-18 05:43 54.13322 141.72160 34029 ft 436 kts 214°
2026-04-18 05:43 54.08238 141.66666 34028 ft 436 kts 214°
2026-04-18 05:44 54.03123 141.61148 34026 ft 435 kts 214°
2026-04-18 05:44 53.98009 141.55640 34028 ft 435 kts 214°
2026-04-18 05:45 53.92898 141.50152 34024 ft 435 kts 214°
2026-04-18 05:45 53.87787 141.44691 34027 ft 434 kts 214°
2026-04-18 05:46 53.82670 141.39251 34030 ft 434 kts 214°
2026-04-18 05:46 53.77559 141.33826 34024 ft 434 kts 214°
2026-04-18 05:47 53.72453 141.28400 34022 ft 433 kts 214°
2026-04-18 05:47 53.67350 141.22996 34018 ft 433 kts 214°
2026-04-18 05:48 53.62281 141.17651 34015 ft 432 kts 214°
2026-04-18 05:48 53.57178 141.12293 34015 ft 432 kts 214°
2026-04-18 05:49 53.52067 141.06961 34017 ft 432 kts 214°
2026-04-18 05:49 53.46958 141.01636 34016 ft 432 kts 214°
2026-04-18 05:50 53.41858 140.96315 34015 ft 432 kts 214°
2026-04-18 05:50 53.36756 140.91005 34013 ft 431 kts 214°
2026-04-18 05:51 53.31657 140.85721 34013 ft 431 kts 214°
2026-04-18 05:51 53.26559 140.80465 34006 ft 430 kts 214°
2026-04-18 05:52 53.21458 140.75229 34000 ft 430 kts 214°
2026-04-18 05:52 53.16402 140.70031 33996 ft 430 kts 214°
2026-04-18 05:53 53.11567 140.64248 33982 ft 427 kts 219°
2026-04-18 05:53 53.06808 140.58311 33978 ft 427 kts 219°
2026-04-18 05:54 53.02041 140.52404 33970 ft 428 kts 219°
2026-04-18 05:54 52.97269 140.46511 33966 ft 428 kts 219°
2026-04-18 05:55 52.92497 140.40615 33964 ft 427 kts 219°
2026-04-18 05:55 52.87726 140.34751 33962 ft 427 kts 219°
2026-04-18 05:56 52.82948 140.28893 33955 ft 427 kts 218°
2026-04-18 05:56 52.78174 140.23051 33951 ft 427 kts 218°
2026-04-18 05:57 52.71011 140.14297 33948 ft 427 kts 218°
2026-04-18 05:58 52.66228 140.08485 33941 ft 427 kts 218°
2026-04-18 05:58 52.61460 140.02756 33935 ft 427 kts 217°
2026-04-18 05:59 52.56561 139.97204 33937 ft 428 kts 216°
2026-04-18 05:59 52.51615 139.91750 33932 ft 428 kts 216°
2026-04-18 06:00 52.46682 139.86281 33936 ft 428 kts 216°
2026-04-18 06:00 52.42595 139.81718 33942 ft 428 kts 216°
2026-04-18 06:01 52.36851 139.75297 33946 ft 427 kts 216°
2026-04-18 06:01 52.32761 139.70753 33935 ft 427 kts 216°
2026-04-18 06:02 52.27841 139.65307 33935 ft 427 kts 216°
2026-04-18 06:02 52.22923 139.59874 33917 ft 427 kts 216°
2026-04-18 06:03 52.18000 139.54458 33934 ft 427 kts 216°
2026-04-18 06:03 52.13079 139.49051 33927 ft 427 kts 216°
2026-04-18 06:04 52.08152 139.43658 33928 ft 427 kts 216°
2026-04-18 06:04 52.03220 139.38263 33922 ft 427 kts 216°
2026-04-18 06:05 51.98288 139.32881 33913 ft 427 kts 216°
2026-04-18 06:05 51.93389 139.27546 33917 ft 427 kts 216°
2026-04-18 06:06 51.88441 139.22186 33912 ft 428 kts 216°
2026-04-18 06:06 51.83489 139.16857 33914 ft 428 kts 216°
2026-04-18 06:07 51.78537 139.11519 33913 ft 428 kts 216°
2026-04-18 06:07 51.73587 139.06193 33910 ft 428 kts 216°
2026-04-18 06:08 51.68639 139.00880 33906 ft 427 kts 216°
2026-04-18 06:08 51.63687 138.95577 33902 ft 427 kts 216°
2026-04-18 06:09 51.58736 138.90293 33899 ft 427 kts 216°
2026-04-18 06:09 51.53781 138.85022 33896 ft 427 kts 216°
2026-04-18 06:10 51.48828 138.79767 33888 ft 427 kts 216°
2026-04-18 06:10 51.43910 138.74562 33888 ft 426 kts 216°
2026-04-18 06:11 51.38949 138.69337 33878 ft 426 kts 216°
2026-04-18 06:11 51.33998 138.64119 33876 ft 427 kts 216°
2026-04-18 06:12 51.29037 138.58905 33875 ft 427 kts 216°
2026-04-18 06:12 51.24070 138.53705 33870 ft 427 kts 216°
2026-04-18 06:13 51.19094 138.48515 33869 ft 427 kts 216°
2026-04-18 06:13 51.14118 138.43342 33869 ft 427 kts 216°
2026-04-18 06:14 51.09148 138.38173 33863 ft 427 kts 216°
2026-04-18 06:14 51.04200 138.33049 33857 ft 427 kts 216°
2026-04-18 06:15 50.99219 138.27910 33847 ft 427 kts 216°
2026-04-18 06:15 50.94237 138.22769 33840 ft 427 kts 216°
2026-04-18 06:16 50.89411 138.17327 33835 ft 425 kts 220°
2026-04-18 06:16 50.84746 138.11550 33830 ft 426 kts 220°
2026-04-18 06:17 50.80065 138.05793 33823 ft 426 kts 220°
2026-04-18 06:17 50.75378 138.00053 33821 ft 426 kts 220°
2026-04-18 06:18 50.70689 137.94316 33822 ft 427 kts 220°
2026-04-18 06:18 50.66027 137.88615 33821 ft 427 kts 220°
2026-04-18 06:19 50.61329 137.82889 33819 ft 427 kts 220°
2026-04-18 06:19 50.56620 137.77165 33826 ft 428 kts 220°
2026-04-18 06:20 50.51905 137.71454 33825 ft 428 kts 220°
2026-04-18 06:20 50.47189 137.65752 33820 ft 428 kts 220°
2026-04-18 06:21 50.42469 137.60064 33823 ft 428 kts 220°
2026-04-18 06:21 50.37738 137.54399 33816 ft 428 kts 219°
2026-04-18 06:22 50.32875 137.49003 33813 ft 429 kts 217°
2026-04-18 06:22 50.27921 137.43790 33808 ft 429 kts 217°
2026-04-18 06:23 50.22972 137.38558 33804 ft 429 kts 217°
2026-04-18 06:23 50.18079 137.33319 33804 ft 430 kts 218°
2026-04-18 06:24 50.13155 137.28028 33805 ft 430 kts 218°
2026-04-18 06:24 50.08220 137.22762 33800 ft 430 kts 217°
2026-04-18 06:25 50.03263 137.17544 33793 ft 430 kts 217°
2026-04-18 06:25 49.98293 137.12356 33793 ft 430 kts 217°
2026-04-18 06:26 49.93322 137.07168 33795 ft 431 kts 217°
2026-04-18 06:26 49.88344 137.01981 33791 ft 431 kts 217°
2026-04-18 06:27 49.83365 136.96804 33793 ft 431 kts 217°
2026-04-18 06:27 49.78378 136.91642 33793 ft 431 kts 217°
2026-04-18 06:28 49.73386 136.86491 33787 ft 431 kts 217°
2026-04-18 06:28 49.68434 136.81374 33782 ft 431 kts 218°
2026-04-18 06:29 49.63440 136.76236 33782 ft 431 kts 218°
2026-04-18 06:29 49.58444 136.71105 33778 ft 431 kts 218°
2026-04-18 06:30 49.53444 136.65987 33773 ft 432 kts 217°
2026-04-18 06:30 49.48434 136.60887 33770 ft 432 kts 218°
2026-04-18 06:31 49.43225 136.56242 33768 ft 438 kts 206°
2026-04-18 06:31 49.37422 136.53198 33758 ft 441 kts 203°
2026-04-18 06:32 49.31593 136.50222 33761 ft 442 kts 203°
2026-04-18 06:32 49.25767 136.47233 33759 ft 442 kts 203°
2026-04-18 06:33 49.19927 136.44246 33758 ft 443 kts 203°
2026-04-18 06:33 49.14079 136.41266 33753 ft 443 kts 203°
2026-04-18 06:34 49.08214 136.38290 33756 ft 444 kts 203°
2026-04-18 06:34 49.02382 136.35347 33756 ft 445 kts 203°
2026-04-18 06:35 48.96493 136.32391 33758 ft 446 kts 203°
2026-04-18 06:35 48.90597 136.29424 33757 ft 446 kts 203°
2026-04-18 06:36 48.84695 136.26455 33761 ft 447 kts 203°
2026-04-18 06:36 48.78778 136.23523 33760 ft 448 kts 203°
2026-04-18 06:37 48.72845 136.20608 33763 ft 448 kts 203°
2026-04-18 06:37 48.66907 136.17700 33759 ft 449 kts 203°
2026-04-18 06:38 48.60958 136.14788 33760 ft 450 kts 203°
2026-04-18 06:38 48.55004 136.11881 33760 ft 450 kts 203°
2026-04-18 06:39 48.49078 136.08999 33762 ft 451 kts 203°
2026-04-18 06:39 48.43103 136.06101 33764 ft 451 kts 203°
2026-04-18 06:40 48.37125 136.03197 33767 ft 452 kts 203°
2026-04-18 06:40 48.31137 136.00301 33769 ft 452 kts 203°
2026-04-18 06:41 48.25142 135.97411 33770 ft 453 kts 203°
2026-04-18 06:41 48.19140 135.94521 33771 ft 453 kts 204°
2026-04-18 06:42 48.13134 135.91634 33772 ft 454 kts 204°
2026-04-18 06:42 48.07114 135.88755 33771 ft 454 kts 204°
2026-04-18 06:43 48.01133 135.85907 33774 ft 455 kts 204°
2026-04-18 06:43 47.95098 135.83026 33774 ft 456 kts 204°
2026-04-18 06:44 47.89047 135.80150 33780 ft 456 kts 204°
2026-04-18 06:44 47.82998 135.77286 33779 ft 457 kts 204°
2026-04-18 06:45 47.76937 135.74415 33780 ft 457 kts 204°
2026-04-18 06:45 47.70871 135.71543 33781 ft 458 kts 204°
2026-04-18 06:46 47.64789 135.68681 33785 ft 459 kts 204°
2026-04-18 06:46 47.58694 135.65832 33786 ft 459 kts 204°
2026-04-18 06:47 47.52596 135.62975 33791 ft 460 kts 204°
2026-04-18 06:47 47.46536 135.60132 33791 ft 460 kts 204°
2026-04-18 06:48 47.40427 135.57286 33796 ft 461 kts 204°
2026-04-18 06:48 47.34304 135.54439 33796 ft 462 kts 204°
2026-04-18 06:49 47.28176 135.51595 33806 ft 462 kts 204°
2026-04-18 06:49 47.22031 135.48745 33812 ft 463 kts 204°
2026-04-18 06:50 47.15884 135.45902 33806 ft 464 kts 204°
2026-04-18 06:50 47.09724 135.43064 33804 ft 464 kts 204°
2026-04-18 06:51 47.03555 135.40228 33807 ft 465 kts 204°
2026-04-18 06:51 46.97381 135.37393 33802 ft 465 kts 204°
2026-04-18 06:52 46.91247 135.34579 33801 ft 466 kts 204°
2026-04-18 06:52 46.85053 135.31744 33797 ft 466 kts 205°
2026-04-18 06:53 46.78861 135.28894 33808 ft 466 kts 205°
2026-04-18 06:53 46.72704 135.25925 33809 ft 466 kts 206°
2026-04-18 06:54 46.66556 135.22908 33812 ft 466 kts 206°
2026-04-18 06:54 46.60400 135.19922 33813 ft 467 kts 206°
2026-04-18 06:55 46.54234 135.16967 33814 ft 467 kts 206°
2026-04-18 06:55 46.48055 135.14020 33812 ft 468 kts 206°
2026-04-18 06:56 46.41874 135.11071 33819 ft 468 kts 206°
2026-04-18 06:56 46.35682 135.08114 33820 ft 469 kts 206°
2026-04-18 06:57 46.29486 135.05167 33826 ft 469 kts 206°
2026-04-18 06:57 46.20221 135.00778 33837 ft 470 kts 206°
2026-04-18 06:58 46.14009 134.97842 33847 ft 470 kts 206°
2026-04-18 06:58 46.07799 134.94920 33852 ft 470 kts 206°
2026-04-18 06:59 46.01588 134.92004 33855 ft 469 kts 206°
2026-04-18 06:59 45.96428 134.89575 33850 ft 469 kts 206°
2026-04-18 07:00 45.90262 134.86538 33853 ft 463 kts 212°
2026-04-18 07:00 45.84666 134.82215 33856 ft 455 kts 219°
2026-04-18 07:01 45.79154 134.77743 33864 ft 456 kts 218°
2026-04-18 07:01 45.73632 134.73277 33872 ft 456 kts 218°
2026-04-18 07:02 45.68108 134.68829 33883 ft 456 kts 218°
2026-04-18 07:02 45.62584 134.64393 33878 ft 455 kts 219°
2026-04-18 07:03 45.57062 134.59965 33888 ft 455 kts 219°
2026-04-18 07:03 45.51537 134.55548 33892 ft 455 kts 219°
2026-04-18 07:04 45.46020 134.51139 33910 ft 455 kts 219°
2026-04-18 07:04 45.40507 134.46737 33916 ft 454 kts 219°
2026-04-18 07:05 45.35028 134.42374 33920 ft 454 kts 219°
2026-04-18 07:05 45.29520 134.38019 33932 ft 453 kts 219°
2026-04-18 07:06 45.24026 134.33681 33930 ft 451 kts 219°
2026-04-18 07:06 45.18550 134.29354 33584 ft 450 kts 219°
2026-04-18 07:07 45.15818 134.27198 33306 ft 450 kts 219°
2026-04-18 07:07 45.13084 134.25041 33032 ft 451 kts 219°
2026-04-18 07:07 45.10338 134.22876 32761 ft 452 kts 219°
2026-04-18 07:07 45.07590 134.20713 32496 ft 453 kts 219°
2026-04-18 07:08 45.04831 134.18544 32227 ft 454 kts 219°
2026-04-18 07:08 45.02064 134.16371 31963 ft 455 kts 219°
2026-04-18 07:08 44.99289 134.14198 31705 ft 457 kts 219°
2026-04-18 07:08 44.96503 134.12020 31448 ft 458 kts 219°
2026-04-18 07:09 44.93707 134.09836 31192 ft 460 kts 219°
2026-04-18 07:09 44.90906 134.07649 30935 ft 462 kts 219°
2026-04-18 07:09 44.88090 134.05450 30682 ft 463 kts 220°
2026-04-18 07:09 44.85265 134.03247 30432 ft 464 kts 220°
2026-04-18 07:10 44.82440 134.01050 30176 ft 464 kts 220°
2026-04-18 07:10 44.79638 133.98820 29925 ft 462 kts 221°
2026-04-18 07:10 44.76897 133.96585 29624 ft 461 kts 221°
2026-04-18 07:10 44.74137 133.94302 29331 ft 460 kts 221°
2026-04-18 07:11 44.71387 133.92019 29042 ft 458 kts 221°
2026-04-18 07:11 44.68647 133.89756 28756 ft 456 kts 221°
2026-04-18 07:11 44.65911 133.87508 28467 ft 455 kts 221°
2026-04-18 07:11 44.63183 133.85278 28190 ft 453 kts 221°
2026-04-18 07:12 44.60458 133.83061 27910 ft 452 kts 221°
2026-04-18 07:12 44.57743 133.80858 27633 ft 450 kts 221°
2026-04-18 07:12 44.55033 133.78662 27363 ft 449 kts 221°
2026-04-18 07:12 44.52332 133.76473 27097 ft 448 kts 221°
2026-04-18 07:13 44.49638 133.74289 26832 ft 446 kts 221°
2026-04-18 07:13 44.46955 133.72110 26567 ft 445 kts 222°
2026-04-18 07:13 44.44279 133.69944 26303 ft 444 kts 222°
2026-04-18 07:13 44.41608 133.67788 26045 ft 443 kts 222°
2026-04-18 07:14 44.38943 133.65640 25791 ft 441 kts 222°
2026-04-18 07:14 44.36285 133.63496 25537 ft 440 kts 222°
2026-04-18 07:14 44.33635 133.61364 25281 ft 439 kts 222°
2026-04-18 07:14 44.30990 133.59238 25030 ft 438 kts 222°
2026-04-18 07:15 44.28353 133.57119 24781 ft 437 kts 222°
2026-04-18 07:15 44.25765 133.55047 24341 ft 433 kts 222°
2026-04-18 07:15 44.23156 133.52963 23779 ft 431 kts 222°
2026-04-18 07:15 44.20556 133.50883 23192 ft 430 kts 222°
2026-04-18 07:16 44.17973 133.48819 22665 ft 427 kts 222°
2026-04-18 07:16 44.15403 133.46771 22164 ft 424 kts 222°
2026-04-18 07:16 44.12852 133.44734 21660 ft 421 kts 221°
2026-04-18 07:16 44.10316 133.42712 21176 ft 419 kts 221°
2026-04-18 07:17 44.07796 133.40705 20700 ft 416 kts 221°
2026-04-18 07:17 44.05287 133.38702 20196 ft 415 kts 221°
2026-04-18 07:17 44.02789 133.36708 19699 ft 413 kts 221°
2026-04-18 07:17 44.00298 133.34726 19184 ft 413 kts 220°
2026-04-18 07:18 43.97810 133.32753 18660 ft 410 kts 220°
2026-04-18 07:18 43.95340 133.30800 18109 ft 407 kts 220°
2026-04-18 07:18 43.92885 133.28859 17547 ft 404 kts 220°
2026-04-18 07:18 43.90478 133.26896 17002 ft 396 kts 224°
2026-04-18 07:19 43.88388 133.24550 16481 ft 379 kts 235°
2026-04-18 07:19 43.86707 133.21844 15967 ft 363 kts 245°
2026-04-18 07:19 43.85313 133.18975 15463 ft 357 kts 246°
2026-04-18 07:19 43.83929 133.16133 14975 ft 354 kts 245°
2026-04-18 07:20 43.82553 133.13332 14490 ft 350 kts 245°
2026-04-18 07:20 43.81189 133.10558 13996 ft 347 kts 245°
2026-04-18 07:20 43.79837 133.07808 13484 ft 344 kts 244°
2026-04-18 07:20 43.78498 133.05086 12981 ft 340 kts 244°
2026-04-18 07:21 43.77192 133.02434 12512 ft 337 kts 244°
2026-04-18 07:21 43.75878 132.99770 12034 ft 334 kts 244°
2026-04-18 07:21 43.74574 132.97128 11565 ft 332 kts 244°
2026-04-18 07:21 43.73279 132.94499 11089 ft 329 kts 243°
2026-04-18 07:22 43.72001 132.91902 10626 ft 325 kts 243°
2026-04-18 07:22 43.70748 132.89360 10419 ft 314 kts 243°
2026-04-18 07:22 43.69538 132.86919 10304 ft 302 kts 243°
2026-04-18 07:22 43.68367 132.84566 10176 ft 292 kts 243°
2026-04-18 07:23 43.67230 132.82280 9995 ft 285 kts 244°
2026-04-18 07:23 43.66115 132.80027 9937 ft 284 kts 244°
2026-04-18 07:23 43.65066 132.77717 9656 ft 285 kts 247°
2026-04-18 07:23 43.64088 132.75344 9270 ft 284 kts 249°
2026-04-18 07:24 43.63141 132.72963 8925 ft 282 kts 249°
2026-04-18 07:24 43.62201 132.70590 8561 ft 282 kts 248°
2026-04-18 07:24 43.61256 132.68229 8191 ft 282 kts 248°
2026-04-18 07:24 43.60302 132.65869 7831 ft 282 kts 248°
2026-04-18 07:25 43.59345 132.63535 7507 ft 279 kts 248°
2026-04-18 07:25 43.58390 132.61214 7104 ft 276 kts 246°
2026-04-18 07:25 43.57470 132.58989 6749 ft 265 kts 246°
2026-04-18 07:25 43.56573 132.56828 6409 ft 255 kts 246°
2026-04-18 07:26 43.55709 132.54753 6130 ft 244 kts 245°
2026-04-18 07:26 43.54865 132.52802 5905 ft 230 kts 247°
2026-04-18 07:26 43.54095 132.50911 5622 ft 224 kts 248°
2026-04-18 07:26 43.53351 132.49040 5318 ft 220 kts 248°
2026-04-18 07:27 43.52627 132.47226 5026 ft 212 kts 248°
2026-04-18 07:27 43.51931 132.45481 4741 ft 205 kts 248°
2026-04-18 07:27 43.51248 132.43767 4464 ft 202 kts 248°
2026-04-18 07:27 43.50572 132.42070 4188 ft 202 kts 248°
2026-04-18 07:28 43.49927 132.40458 3971 ft 196 kts 248°
2026-04-18 07:28 43.49279 132.38840 3651 ft 188 kts 248°
2026-04-18 07:28 43.48666 132.37311 3411 ft 177 kts 249°
2026-04-18 07:28 43.48086 132.35863 3178 ft 168 kts 250°
2026-04-18 07:29 43.47560 132.34552 2961 ft 159 kts 250°
2026-04-18 07:29 43.47043 132.33260 2779 ft 150 kts 251°
2026-04-18 07:29 43.46552 132.32032 2569 ft 147 kts 252°
2026-04-18 07:29 43.46063 132.30809 2372 ft 145 kts 251°
2026-04-18 07:30 43.45576 132.29593 2176 ft 145 kts 251°
2026-04-18 07:30 43.45090 132.28380 1972 ft 145 kts 250°
2026-04-18 07:30 43.44604 132.27168 1782 ft 145 kts 251°
2026-04-18 07:30 43.44115 132.25951 1588 ft 145 kts 251°
2026-04-18 07:31 43.43629 132.24744 1386 ft 144 kts 250°
2026-04-18 07:31 43.43148 132.23546 1173 ft 143 kts 250°
2026-04-18 07:31 43.42667 132.22348 999 ft 143 kts 249°
2026-04-18 07:31 43.42346 132.21552 853 ft 143 kts 247°
2026-04-18 07:32 43.42044 132.20763 753 ft 144 kts 248°
2026-04-18 07:32 43.41553 132.19550 526 ft 145 kts 244°
2026-04-18 07:32 43.41054 132.18361 365 ft 145 kts 245°
2026-04-18 07:32 43.40570 132.17183 214 ft 142 kts 246°
2026-04-18 07:33 43.40114 132.15994 68 ft 132 kts 244°
2026-04-18 07:33 43.39741 132.15062 68 ft 95 kts 240°
2026-04-18 07:33 43.39475 132.14412 63 ft 51 kts 243°
2026-04-18 07:33 43.39352 132.14194 69 ft 21 kts 190°
2026-04-18 07:34 43.39232 132.14262 70 ft 19 kts 154°
2026-04-18 07:34 43.39219 132.14398 63 ft 17 kts 61°
2026-04-18 07:34 43.39281 132.14545 70 ft 19 kts 60°
2026-04-18 07:34 43.39347 132.14710 68 ft 21 kts 60°
2026-04-18 07:35 43.39415 132.14889 65 ft 21 kts 63°
2026-04-18 07:35 43.39490 132.15067 66 ft 22 kts 59°
2026-04-18 07:35 43.39565 132.15251 70 ft 19 kts 62°
2026-04-18 07:35 43.39630 132.15415 65 ft 17 kts 61°
2026-04-18 07:36 43.39694 132.15568 69 ft 20 kts 60°
2026-04-18 07:36 43.39756 132.15725 70 ft 18 kts 62°
2026-04-18 07:36 43.39819 132.15876 70 ft 13 kts 62°
2026-04-18 07:36 43.39869 132.16000 64 ft 16 kts 61°
2026-04-18 07:37 43.39877 132.16121 67 ft 8 kts 150°
2026-04-18 07:37 43.39826 132.16156 69 ft 9 kts 146°
2026-04-18 07:37 43.39764 132.16209 67 ft 11 kts 147°
2026-04-18 07:37 43.39751 132.16300 70 ft 6 kts 69°
2026-04-18 07:38 43.39764 132.16367 68 ft 8 kts 106°
2026-04-18 07:38 43.39717 132.16412 65 ft 8 kts 153°
2026-04-18 07:38 43.39696 132.16427 67 ft 3 kts 151°